EXS28 EGPF-LGSK

Flight info

Callsign EXS28
Flight time 3h 32m
Altitude 35000
Route EGPF/23 LUSIV1A LUSIV DCT BELOX L603 BUKUT DCT LAMSO DCT OTMEC DCT
Aircraft A321/M-V/N

Departure

Time 2026-04-16 09:05
Airport Glasgow Airport (EGPF)

Arrival

Time 2026-04-16 12:38
Airport Skiathos Island National Airport (LGSK)
Time Latitude Longitude Altitude Speed Heading
2026-04-16 08:48 55.86503 -4.43373 18 ft 0 kts 74°
2026-04-16 08:56 55.86496 -4.43411 50 ft 4 kts 74°
2026-04-16 08:56 55.86489 -4.43457 29 ft 4 kts 74°
2026-04-16 08:57 55.86482 -4.43503 29 ft 4 kts 74°
2026-04-16 08:57 55.86478 -4.43526 29 ft 0 kts 74°
2026-04-16 09:00 55.86485 -4.43514 29 ft 7 kts 46°
2026-04-16 09:00 55.86537 -4.43526 29 ft 8 kts 346°
2026-04-16 09:00 55.86616 -4.43565 29 ft 13 kts 344°
2026-04-16 09:00 55.86696 -4.43606 29 ft 11 kts 344°
2026-04-16 09:01 55.86792 -4.43372 29 ft 20 kts 75°
2026-04-16 09:01 55.86833 -4.43115 29 ft 21 kts 74°
2026-04-16 09:01 55.86913 -4.42931 29 ft 18 kts 32°
2026-04-16 09:02 55.87021 -4.42840 29 ft 16 kts 22°
2026-04-16 09:02 55.87120 -4.42773 29 ft 15 kts 20°
2026-04-16 09:02 55.87227 -4.42699 29 ft 16 kts 21°
2026-04-16 09:02 55.87327 -4.42630 29 ft 15 kts 20°
2026-04-16 09:03 55.87407 -4.42544 29 ft 13 kts 53°
2026-04-16 09:03 55.87467 -4.42444 29 ft 12 kts 43°
2026-04-16 09:03 55.87564 -4.42281 29 ft 26 kts 43°
2026-04-16 09:03 55.87696 -4.42019 29 ft 26 kts 46°
2026-04-16 09:04 55.87825 -4.41851 29 ft 21 kts
2026-04-16 09:04 55.87921 -4.41932 29 ft 11 kts 279°
2026-04-16 09:04 55.87888 -4.42034 29 ft 10 kts 222°
2026-04-16 09:04 55.87842 -4.42118 29 ft 11 kts 226°
2026-04-16 09:05 55.87680 -4.42422 29 ft 66 kts 226°
2026-04-16 09:05 55.87224 -4.43272 29 ft 121 kts 226°
2026-04-16 09:05 55.86566 -4.44503 303 ft 140 kts 227°
2026-04-16 09:05 55.85930 -4.45773 981 ft 136 kts 227°
2026-04-16 09:06 55.85276 -4.46991 1640 ft 136 kts 227°
2026-04-16 09:06 55.84604 -4.48228 2026 ft 146 kts 229°
2026-04-16 09:06 55.83852 -4.49612 2172 ft 165 kts 229°
2026-04-16 09:06 55.83022 -4.51142 2308 ft 183 kts 229°
2026-04-16 09:07 55.82086 -4.52870 2424 ft 207 kts 229°
2026-04-16 09:07 55.81016 -4.54785 2753 ft 228 kts 222°
2026-04-16 09:07 55.79606 -4.56221 3377 ft 241 kts 204°
2026-04-16 09:07 55.77917 -4.56719 4108 ft 254 kts 184°
2026-04-16 09:08 55.76148 -4.56044 4821 ft 268 kts 161°
2026-04-16 09:08 55.74593 -4.54105 5529 ft 282 kts 136°
2026-04-16 09:08 55.73503 -4.51139 5975 ft 289 kts 120°
2026-04-16 09:08 55.72609 -4.47917 6477 ft 292 kts 120°
2026-04-16 09:09 55.71720 -4.44653 6981 ft 296 kts 120°
2026-04-16 09:09 55.70821 -4.41351 7491 ft 298 kts 120°
2026-04-16 09:09 55.69909 -4.38030 7988 ft 301 kts 120°
2026-04-16 09:09 55.68984 -4.34689 8533 ft 303 kts 121°
2026-04-16 09:10 55.68046 -4.31321 9064 ft 306 kts 121°
2026-04-16 09:10 55.67056 -4.27965 9610 ft 306 kts 129°
2026-04-16 09:10 55.65663 -4.25199 10113 ft 299 kts 148°
2026-04-16 09:10 55.63910 -4.23340 10615 ft 291 kts 166°
2026-04-16 09:11 55.61984 -4.22363 11132 ft 290 kts 174°
2026-04-16 09:11 55.59996 -4.21512 11658 ft 297 kts 174°
2026-04-16 09:11 55.57962 -4.20625 12190 ft 304 kts 174°
2026-04-16 09:11 55.55883 -4.19711 12730 ft 310 kts 173°
2026-04-16 09:12 55.53769 -4.18777 13276 ft 316 kts 174°
2026-04-16 09:12 55.51619 -4.17833 13813 ft 322 kts 174°
2026-04-16 09:12 55.49448 -4.16878 14294 ft 327 kts 174°
2026-04-16 09:12 55.47229 -4.15897 14799 ft 332 kts 174°
2026-04-16 09:13 55.44971 -4.14896 15264 ft 336 kts 174°
2026-04-16 09:13 55.42691 -4.13886 15790 ft 340 kts 174°
2026-04-16 09:13 55.40383 -4.12867 16302 ft 344 kts 174°
2026-04-16 09:13 55.38053 -4.11841 16842 ft 347 kts 174°
2026-04-16 09:14 55.35704 -4.10809 17383 ft 349 kts 175°
2026-04-16 09:14 55.33333 -4.09772 17936 ft 352 kts 175°
2026-04-16 09:14 55.30949 -4.08733 18443 ft 354 kts 175°
2026-04-16 09:14 55.28552 -4.07689 18927 ft 356 kts 175°
2026-04-16 09:15 55.26142 -4.06640 19431 ft 358 kts 175°
2026-04-16 09:15 55.23723 -4.05590 19929 ft 359 kts 175°
2026-04-16 09:15 55.21297 -4.04539 20435 ft 360 kts 175°
2026-04-16 09:15 55.18860 -4.03486 20828 ft 364 kts 175°
2026-04-16 09:16 55.16353 -4.02413 20954 ft 376 kts 175°
2026-04-16 09:16 55.13777 -4.01311 21092 ft 387 kts 174°
2026-04-16 09:16 55.11122 -4.00174 21224 ft 398 kts 174°
2026-04-16 09:16 55.08400 -3.99010 21369 ft 407 kts 174°
2026-04-16 09:17 55.05612 -3.97814 21503 ft 417 kts 174°
2026-04-16 09:17 55.02772 -3.96588 21708 ft 424 kts 174°
2026-04-16 09:17 54.99897 -3.95341 22057 ft 427 kts 174°
2026-04-16 09:17 54.97005 -3.94088 22436 ft 430 kts 174°
2026-04-16 09:18 54.94095 -3.92829 22765 ft 432 kts 174°
2026-04-16 09:18 54.91168 -3.91572 23141 ft 435 kts 174°
2026-04-16 09:18 54.88220 -3.90314 23478 ft 437 kts 174°
2026-04-16 09:18 54.85294 -3.89068 23762 ft 440 kts 174°
2026-04-16 09:19 54.82316 -3.87804 24071 ft 442 kts 174°
2026-04-16 09:19 54.79328 -3.86539 24374 ft 443 kts 174°
2026-04-16 09:19 54.76323 -3.85266 24673 ft 445 kts 174°
2026-04-16 09:19 54.73304 -3.83987 24977 ft 447 kts 174°
2026-04-16 09:20 54.70270 -3.82704 25269 ft 449 kts 174°
2026-04-16 09:20 54.67228 -3.81421 25534 ft 451 kts 174°
2026-04-16 09:20 54.64178 -3.80138 25827 ft 452 kts 174°
2026-04-16 09:20 54.61111 -3.78850 26098 ft 454 kts 174°
2026-04-16 09:21 54.58033 -3.77560 26375 ft 456 kts 174°
2026-04-16 09:21 54.54942 -3.76260 26651 ft 458 kts 174°
2026-04-16 09:21 54.51839 -3.74955 26889 ft 460 kts 174°
2026-04-16 09:21 54.48724 -3.73652 27142 ft 462 kts 174°
2026-04-16 09:22 54.45588 -3.72346 27410 ft 464 kts 174°
2026-04-16 09:22 54.42440 -3.71035 27632 ft 466 kts 175°
2026-04-16 09:22 54.39293 -3.69726 27903 ft 467 kts 175°
2026-04-16 09:22 54.36131 -3.68414 28188 ft 467 kts 175°
2026-04-16 09:23 54.32977 -3.67099 28521 ft 466 kts 175°
2026-04-16 09:23 54.29826 -3.65786 28866 ft 466 kts 175°
2026-04-16 09:23 54.26679 -3.64481 29195 ft 465 kts 175°
2026-04-16 09:23 54.24598 -3.63621 29400 ft 465 kts 175°
2026-04-16 09:24 54.21456 -3.62329 29719 ft 464 kts 175°
2026-04-16 09:24 54.18322 -3.61045 29978 ft 464 kts 175°
2026-04-16 09:24 54.15186 -3.59757 30268 ft 462 kts 175°
2026-04-16 09:24 54.12061 -3.58466 30550 ft 461 kts 175°
2026-04-16 09:25 54.07932 -3.56769 30919 ft 460 kts 175°
2026-04-16 09:25 54.05822 -3.55908 31102 ft 460 kts 175°
2026-04-16 09:25 54.02753 -3.54662 31371 ft 459 kts 175°
2026-04-16 09:25 53.99650 -3.53401 31640 ft 458 kts 175°
2026-04-16 09:26 53.96554 -3.52071 31903 ft 462 kts 171°
2026-04-16 09:26 53.93515 -3.49926 32121 ft 474 kts 159°
2026-04-16 09:26 53.90748 -3.46780 32394 ft 486 kts 147°
2026-04-16 09:26 53.88378 -3.42704 32659 ft 498 kts 134°
2026-04-16 09:27 53.86472 -3.37731 32919 ft 508 kts 122°
2026-04-16 09:27 53.85125 -3.32170 33136 ft 513 kts 115°
2026-04-16 09:27 53.83897 -3.26498 33393 ft 512 kts 115°
2026-04-16 09:27 53.82657 -3.20849 33641 ft 511 kts 115°
2026-04-16 09:28 53.81409 -3.15220 33911 ft 510 kts 115°
2026-04-16 09:28 53.80161 -3.09612 34124 ft 509 kts 115°
2026-04-16 09:28 53.78915 -3.04016 34349 ft 508 kts 115°
2026-04-16 09:28 53.77673 -2.98428 34554 ft 507 kts 115°
2026-04-16 09:29 53.76435 -2.92854 34734 ft 506 kts 115°
2026-04-16 09:29 53.75192 -2.87286 34918 ft 506 kts 115°
2026-04-16 09:29 53.73947 -2.81735 34970 ft 505 kts 115°
2026-04-16 09:30 53.71457 -2.70663 34989 ft 503 kts 115°
2026-04-16 09:30 53.68948 -2.59592 34963 ft 506 kts 115°
2026-04-16 09:31 53.66425 -2.48506 34992 ft 505 kts 115°
2026-04-16 09:31 53.63919 -2.37529 34992 ft 505 kts 115°
2026-04-16 09:32 53.61381 -2.26493 34986 ft 505 kts 116°
2026-04-16 09:32 53.58828 -2.15455 34987 ft 505 kts 116°
2026-04-16 09:33 53.56273 -2.04420 34980 ft 505 kts 116°
2026-04-16 09:33 53.53709 -1.93430 34980 ft 505 kts 116°
2026-04-16 09:34 53.51477 -1.82185 34986 ft 508 kts 110°
2026-04-16 09:34 53.49492 -1.70875 34988 ft 508 kts 110°
2026-04-16 09:35 53.47480 -1.59506 34987 ft 508 kts 110°
2026-04-16 09:35 53.45459 -1.48149 34975 ft 508 kts 110°
2026-04-16 09:36 53.43412 -1.36780 34980 ft 509 kts 110°
2026-04-16 09:36 53.41342 -1.25421 34986 ft 509 kts 111°
2026-04-16 09:37 53.39271 -1.14050 34989 ft 510 kts 110°
2026-04-16 09:37 53.37203 -1.02702 34992 ft 510 kts 111°
2026-04-16 09:38 53.35113 -0.91348 34998 ft 510 kts 111°
2026-04-16 09:38 53.33012 -0.80025 35016 ft 510 kts 111°
2026-04-16 09:39 53.30886 -0.68701 35023 ft 510 kts 111°
2026-04-16 09:39 53.28761 -0.57385 35030 ft 510 kts 111°
2026-04-16 09:40 53.26630 -0.46078 35031 ft 510 kts 111°
2026-04-16 09:40 53.24501 -0.34851 35000 ft 510 kts 111°
2026-04-16 09:41 53.22343 -0.23554 35009 ft 511 kts 111°
2026-04-16 09:41 53.20172 -0.12250 35014 ft 511 kts 111°
2026-04-16 09:42 53.17980 -0.00965 35013 ft 512 kts 111°
2026-04-16 09:42 53.15786 0.10314 35036 ft 511 kts 111°
2026-04-16 09:43 53.13586 0.21572 35061 ft 511 kts 111°
2026-04-16 09:43 53.11376 0.32818 35063 ft 511 kts 111°
2026-04-16 09:44 53.09162 0.44041 35076 ft 511 kts 112°
2026-04-16 09:44 53.06925 0.55263 35071 ft 510 kts 112°
2026-04-16 09:45 53.04690 0.66391 35084 ft 510 kts 112°
2026-04-16 09:45 53.02436 0.77580 35086 ft 510 kts 112°
2026-04-16 09:46 53.00178 0.88746 35062 ft 510 kts 112°
2026-04-16 09:46 52.97956 0.99935 35069 ft 512 kts 107°
2026-04-16 09:47 52.96549 1.11544 35078 ft 514 kts 103°
2026-04-16 09:47 52.95205 1.23187 35096 ft 514 kts 103°
2026-04-16 09:48 52.93846 1.34823 35101 ft 514 kts 103°
2026-04-16 09:48 52.92477 1.46446 35123 ft 514 kts 103°
2026-04-16 09:49 52.91092 1.58076 35108 ft 513 kts 103°
2026-04-16 09:49 52.89711 1.69588 35123 ft 512 kts 103°
2026-04-16 09:50 52.88316 1.81157 35131 ft 512 kts 103°
2026-04-16 09:50 52.86904 1.92705 35130 ft 511 kts 103°
2026-04-16 09:51 52.85484 2.04235 35118 ft 511 kts 103°
2026-04-16 09:51 52.84060 2.15739 35134 ft 510 kts 103°
2026-04-16 09:52 52.82627 2.27210 35145 ft 509 kts 103°
2026-04-16 09:52 52.81176 2.38679 35144 ft 509 kts 104°
2026-04-16 09:53 52.79720 2.50041 35144 ft 508 kts 104°
2026-04-16 09:53 52.78250 2.61461 35140 ft 507 kts 104°
2026-04-16 09:54 52.76776 2.72856 35152 ft 507 kts 104°
2026-04-16 09:54 52.75294 2.84227 35150 ft 506 kts 104°
2026-04-16 09:55 52.73797 2.95578 35150 ft 506 kts 104°
2026-04-16 09:55 52.71721 3.06604 35118 ft 502 kts 112°
2026-04-16 09:56 52.69329 3.17446 35127 ft 502 kts 112°
2026-04-16 09:56 52.66928 3.28260 35127 ft 502 kts 112°
2026-04-16 09:57 52.64516 3.39061 35129 ft 502 kts 112°
2026-04-16 09:57 52.62117 3.49783 35135 ft 502 kts 112°
2026-04-16 09:58 52.59690 3.60563 35169 ft 502 kts 113°
2026-04-16 09:58 52.57257 3.71304 35169 ft 501 kts 113°
2026-04-16 09:59 52.54809 3.82036 35185 ft 500 kts 113°
2026-04-16 09:59 52.52356 3.92741 35179 ft 500 kts 113°
2026-04-16 10:00 52.49898 4.03421 35177 ft 500 kts 113°
2026-04-16 10:00 52.47438 4.14077 35187 ft 499 kts 113°
2026-04-16 10:01 52.43751 4.29986 35153 ft 499 kts 113°
2026-04-16 10:01 52.41265 4.40595 35159 ft 499 kts 113°
2026-04-16 10:02 52.38760 4.51204 35166 ft 499 kts 114°
2026-04-16 10:02 52.36252 4.61809 35165 ft 500 kts 113°
2026-04-16 10:03 52.33744 4.72414 35159 ft 500 kts 114°
2026-04-16 10:03 52.31224 4.83006 35161 ft 500 kts 114°
2026-04-16 10:04 52.28683 4.93584 35167 ft 500 kts 114°
2026-04-16 10:04 52.26130 5.04141 35172 ft 499 kts 114°
2026-04-16 10:05 52.23580 5.14664 35179 ft 499 kts 114°
2026-04-16 10:05 52.21028 5.25164 35183 ft 498 kts 114°
2026-04-16 10:06 52.18461 5.35680 35182 ft 498 kts 114°
2026-04-16 10:06 52.15889 5.46162 35178 ft 498 kts 114°
2026-04-16 10:07 52.13308 5.56612 35164 ft 497 kts 114°
2026-04-16 10:07 52.10733 5.66967 35183 ft 497 kts 114°
2026-04-16 10:08 52.08099 5.77368 35187 ft 496 kts 118°
2026-04-16 10:08 52.04375 5.86667 35188 ft 488 kts 136°
2026-04-16 10:09 51.99626 5.94436 35195 ft 484 kts 140°
2026-04-16 10:09 51.94840 6.02131 35201 ft 484 kts 139°
2026-04-16 10:10 51.90063 6.09811 35206 ft 484 kts 139°
2026-04-16 10:10 51.85280 6.17481 35181 ft 484 kts 139°
2026-04-16 10:11 51.80486 6.25133 35183 ft 484 kts 140°
2026-04-16 10:11 51.75679 6.32764 35183 ft 484 kts 139°
2026-04-16 10:12 51.71687 6.39098 35194 ft 484 kts 139°
2026-04-16 10:12 51.66883 6.46686 35202 ft 483 kts 140°
2026-04-16 10:13 51.61294 6.55482 35181 ft 483 kts 139°
2026-04-16 10:13 51.57266 6.61816 35191 ft 484 kts 140°
2026-04-16 10:14 51.52451 6.69354 35193 ft 484 kts 140°
2026-04-16 10:14 51.47769 6.76639 35212 ft 484 kts 140°
2026-04-16 10:15 51.42939 6.84144 35229 ft 483 kts 140°
2026-04-16 10:15 51.38124 6.91626 35235 ft 482 kts 140°
2026-04-16 10:16 51.33305 6.99089 35207 ft 482 kts 140°
2026-04-16 10:16 51.28510 7.06489 35210 ft 482 kts 140°
2026-04-16 10:17 51.23682 7.13905 35213 ft 482 kts 140°
2026-04-16 10:17 51.18839 7.21307 35224 ft 482 kts 140°
2026-04-16 10:18 51.14003 7.28697 35227 ft 481 kts 140°
2026-04-16 10:18 51.09167 7.36074 35204 ft 481 kts 140°
2026-04-16 10:19 51.04333 7.43413 35207 ft 481 kts 140°
2026-04-16 10:19 50.99493 7.50740 35214 ft 481 kts 140°
2026-04-16 10:20 50.94639 7.58067 35220 ft 481 kts 140°
2026-04-16 10:20 50.89791 7.65363 35224 ft 481 kts 140°
2026-04-16 10:21 50.84934 7.72641 35220 ft 480 kts 140°
2026-04-16 10:21 50.80123 7.79901 35219 ft 481 kts 140°
2026-04-16 10:22 50.75350 7.87305 35219 ft 481 kts 139°
2026-04-16 10:22 50.70579 7.94724 35218 ft 481 kts 139°
2026-04-16 10:23 50.65792 8.02102 35218 ft 481 kts 140°
2026-04-16 10:23 50.60986 8.09445 35226 ft 481 kts 140°
2026-04-16 10:24 50.56183 8.16758 35212 ft 480 kts 140°
2026-04-16 10:24 50.51407 8.24018 35218 ft 480 kts 140°
2026-04-16 10:25 50.46600 8.31302 35223 ft 480 kts 140°
2026-04-16 10:25 50.41787 8.38584 35225 ft 480 kts 140°
2026-04-16 10:26 50.36976 8.45838 35235 ft 480 kts 140°
2026-04-16 10:26 50.32156 8.53070 35218 ft 479 kts 140°
2026-04-16 10:27 50.27340 8.60282 35229 ft 479 kts 140°
2026-04-16 10:27 50.22527 8.67479 35235 ft 479 kts 140°
2026-04-16 10:28 50.17697 8.74673 35242 ft 479 kts 140°
2026-04-16 10:28 50.12900 8.81793 35243 ft 479 kts 140°
2026-04-16 10:29 50.08071 8.88951 35244 ft 479 kts 140°
2026-04-16 10:29 50.03231 8.96088 35233 ft 479 kts 140°
2026-04-16 10:30 49.98394 9.03202 35243 ft 479 kts 140°
2026-04-16 10:30 49.93552 9.10308 35238 ft 479 kts 140°
2026-04-16 10:31 49.88711 9.17399 35239 ft 478 kts 141°
2026-04-16 10:31 49.83871 9.24467 35236 ft 478 kts 141°
2026-04-16 10:32 49.79019 9.31519 35226 ft 478 kts 141°
2026-04-16 10:32 49.74165 9.38546 35238 ft 478 kts 141°
2026-04-16 10:33 49.69320 9.45578 35227 ft 478 kts 141°
2026-04-16 10:33 49.64506 9.52548 35236 ft 477 kts 141°
2026-04-16 10:34 49.59646 9.59525 35243 ft 477 kts 141°
2026-04-16 10:34 49.54792 9.66468 35230 ft 476 kts 141°
2026-04-16 10:35 49.49939 9.73415 35246 ft 476 kts 141°
2026-04-16 10:35 49.45093 9.80335 35253 ft 475 kts 141°
2026-04-16 10:36 49.40239 9.87235 35247 ft 475 kts 141°
2026-04-16 10:36 49.35385 9.94113 35253 ft 474 kts 141°
2026-04-16 10:37 49.30535 10.00970 35241 ft 474 kts 141°
2026-04-16 10:37 49.25687 10.07809 35250 ft 473 kts 141°
2026-04-16 10:38 49.20842 10.14619 35268 ft 473 kts 141°
2026-04-16 10:38 49.15993 10.21414 35267 ft 473 kts 141°
2026-04-16 10:39 49.11235 10.28362 35259 ft 474 kts 138°
2026-04-16 10:39 49.06717 10.35725 35276 ft 475 kts 136°
2026-04-16 10:40 49.02256 10.43155 35265 ft 475 kts 136°
2026-04-16 10:40 48.97759 10.50427 35283 ft 474 kts 137°
2026-04-16 10:41 48.93187 10.57655 35286 ft 474 kts 137°
2026-04-16 10:41 48.88617 10.64883 35290 ft 474 kts 137°
2026-04-16 10:42 48.84059 10.72111 35288 ft 474 kts 137°
2026-04-16 10:42 48.79494 10.79324 35254 ft 473 kts 137°
2026-04-16 10:43 48.74922 10.86493 35260 ft 473 kts 137°
2026-04-16 10:43 48.70349 10.93631 35257 ft 472 kts 137°
2026-04-16 10:44 48.65764 11.00779 35255 ft 472 kts 137°
2026-04-16 10:44 48.61186 11.07901 35253 ft 472 kts 137°
2026-04-16 10:45 48.56625 11.15033 35252 ft 472 kts 136°
2026-04-16 10:45 48.52301 11.22433 35241 ft 474 kts 133°
2026-04-16 10:46 48.48064 11.30026 35253 ft 473 kts 133°
2026-04-16 10:46 48.43783 11.37559 35262 ft 473 kts 134°
2026-04-16 10:47 48.39441 11.45017 35275 ft 472 kts 134°
2026-04-16 10:47 48.35104 11.52433 35270 ft 472 kts 134°
2026-04-16 10:48 48.30771 11.59863 35273 ft 472 kts 134°
2026-04-16 10:48 48.26443 11.67275 35276 ft 472 kts 134°
2026-04-16 10:49 48.22106 11.74681 35273 ft 472 kts 134°
2026-04-16 10:49 48.17737 11.82023 35267 ft 470 kts 139°
2026-04-16 10:50 48.12943 11.88651 35268 ft 469 kts 141°
2026-04-16 10:50 48.08169 11.95209 35279 ft 469 kts 141°
2026-04-16 10:51 48.03364 12.01830 35275 ft 469 kts 141°
2026-04-16 10:51 47.98565 12.08418 35269 ft 469 kts 141°
2026-04-16 10:52 47.93755 12.14983 35269 ft 468 kts 141°
2026-04-16 10:52 47.88857 12.21376 35268 ft 467 kts 143°
2026-04-16 10:53 47.83858 12.27557 35268 ft 467 kts 143°
2026-04-16 10:53 47.78855 12.33727 35274 ft 467 kts 143°
2026-04-16 10:54 47.73882 12.39928 35262 ft 467 kts 143°
2026-04-16 10:54 47.68912 12.46128 35267 ft 466 kts 143°
2026-04-16 10:55 47.63959 12.52237 35269 ft 466 kts 143°
2026-04-16 10:55 47.59392 12.59122 35269 ft 469 kts 135°
2026-04-16 10:56 47.55006 12.66281 35254 ft 469 kts 135°
2026-04-16 10:56 47.50623 12.73421 35242 ft 469 kts 135°
2026-04-16 10:57 47.46235 12.80545 35255 ft 468 kts 135°
2026-04-16 10:57 47.41844 12.87652 35259 ft 468 kts 135°
2026-04-16 10:58 47.37451 12.94734 35250 ft 468 kts 135°
2026-04-16 10:58 47.33056 13.01799 35242 ft 467 kts 135°
2026-04-16 10:59 47.28682 13.08822 35237 ft 468 kts 135°
2026-04-16 10:59 47.24279 13.15877 35228 ft 467 kts 134°
2026-04-16 11:00 47.19872 13.22910 35222 ft 467 kts 135°
2026-04-16 11:00 47.15466 13.29924 35227 ft 467 kts 135°
2026-04-16 11:01 47.11063 13.36917 35230 ft 466 kts 134°
2026-04-16 11:01 47.06655 13.43897 35223 ft 466 kts 134°
2026-04-16 11:02 47.02246 13.50852 35219 ft 465 kts 134°
2026-04-16 11:02 46.98580 13.56631 35213 ft 465 kts 134°
2026-04-16 11:03 46.94166 13.63574 35216 ft 465 kts 134°
2026-04-16 11:04 46.87549 13.73958 35222 ft 465 kts 134°
2026-04-16 11:04 46.83129 13.80862 35218 ft 465 kts 134°
2026-04-16 11:05 46.78928 13.87398 35225 ft 465 kts 134°
2026-04-16 11:05 46.74529 13.94226 35233 ft 465 kts 134°
2026-04-16 11:06 46.70106 14.01084 35238 ft 464 kts 134°
2026-04-16 11:06 46.65686 14.07929 35237 ft 464 kts 134°
2026-04-16 11:07 46.61261 14.14754 35236 ft 463 kts 134°
2026-04-16 11:07 46.56833 14.21559 35222 ft 463 kts 134°
2026-04-16 11:08 46.52400 14.28354 35241 ft 463 kts 133°
2026-04-16 11:08 46.47967 14.35134 35227 ft 463 kts 134°
2026-04-16 11:09 46.43536 14.41902 35233 ft 462 kts 133°
2026-04-16 11:09 46.39110 14.48650 35219 ft 461 kts 133°
2026-04-16 11:10 46.34691 14.55360 35208 ft 461 kts 133°
2026-04-16 11:10 46.30250 14.62081 35198 ft 461 kts 133°
2026-04-16 11:11 46.25815 14.68786 35196 ft 461 kts 133°
2026-04-16 11:11 46.21405 14.75442 35199 ft 462 kts 133°
2026-04-16 11:12 46.16962 14.82135 35219 ft 461 kts 133°
2026-04-16 11:12 46.12520 14.88803 35222 ft 461 kts 133°
2026-04-16 11:13 46.08065 14.95447 35217 ft 460 kts 133°
2026-04-16 11:13 46.03684 15.02159 35222 ft 460 kts 130°
2026-04-16 11:14 45.99584 15.09217 35226 ft 459 kts 128°
2026-04-16 11:14 45.95581 15.16305 35206 ft 459 kts 128°
2026-04-16 11:15 45.91458 15.23389 35237 ft 459 kts 129°
2026-04-16 11:15 45.87348 15.30300 35221 ft 458 kts 129°
2026-04-16 11:16 45.83211 15.37255 35224 ft 457 kts 129°
2026-04-16 11:16 45.79080 15.44203 35222 ft 457 kts 129°
2026-04-16 11:17 45.74955 15.51134 35217 ft 457 kts 129°
2026-04-16 11:17 45.70828 15.58063 35216 ft 457 kts 129°
2026-04-16 11:18 45.66703 15.64974 35217 ft 457 kts 129°
2026-04-16 11:18 45.62571 15.71881 35227 ft 457 kts 129°
2026-04-16 11:19 45.58432 15.78765 35230 ft 457 kts 129°
2026-04-16 11:19 45.54317 15.85588 35222 ft 457 kts 129°
2026-04-16 11:20 45.50168 15.92455 35219 ft 456 kts 129°
2026-04-16 11:20 45.46020 15.99297 35222 ft 456 kts 129°
2026-04-16 11:21 45.41870 16.06141 35225 ft 456 kts 129°
2026-04-16 11:21 45.37728 16.12962 35245 ft 455 kts 128°
2026-04-16 11:22 45.33593 16.19751 35233 ft 453 kts 129°
2026-04-16 11:22 45.29464 16.26501 35226 ft 452 kts 129°
2026-04-16 11:23 45.25362 16.33185 35226 ft 451 kts 129°
2026-04-16 11:23 45.21231 16.39893 35228 ft 451 kts 129°
2026-04-16 11:24 45.17109 16.46584 35233 ft 450 kts 129°
2026-04-16 11:24 45.12997 16.53263 35227 ft 449 kts 128°
2026-04-16 11:25 45.08889 16.59916 35215 ft 448 kts 128°
2026-04-16 11:25 45.04779 16.66545 35217 ft 448 kts 129°
2026-04-16 11:26 45.00670 16.73157 35215 ft 447 kts 128°
2026-04-16 11:26 44.96562 16.79743 35216 ft 446 kts 129°
2026-04-16 11:27 44.92458 16.86318 35208 ft 446 kts 129°
2026-04-16 11:27 44.88383 16.92821 35213 ft 445 kts 128°
2026-04-16 11:28 44.84284 16.99353 35220 ft 444 kts 128°
2026-04-16 11:28 44.80060 17.05701 35218 ft 444 kts 131°
2026-04-16 11:29 44.75671 17.11824 35210 ft 443 kts 132°
2026-04-16 11:29 44.71289 17.17911 35209 ft 442 kts 132°
2026-04-16 11:30 44.66946 17.24037 35199 ft 442 kts 131°
2026-04-16 11:30 44.62621 17.30171 35206 ft 442 kts 132°
2026-04-16 11:31 44.58286 17.36292 35192 ft 442 kts 132°
2026-04-16 11:31 44.53945 17.42398 35187 ft 442 kts 132°
2026-04-16 11:32 44.49626 17.48446 35179 ft 442 kts 132°
2026-04-16 11:32 44.45272 17.54526 35177 ft 442 kts 133°
2026-04-16 11:33 44.40913 17.60608 35171 ft 443 kts 133°
2026-04-16 11:33 44.36543 17.66692 35165 ft 443 kts 133°
2026-04-16 11:34 44.32162 17.72774 35158 ft 444 kts 133°
2026-04-16 11:34 44.27775 17.78858 35155 ft 444 kts 133°
2026-04-16 11:35 44.23390 17.84946 35144 ft 445 kts 134°
2026-04-16 11:35 44.19015 17.90993 35144 ft 446 kts 134°
2026-04-16 11:36 44.14594 17.97071 35149 ft 447 kts 134°
2026-04-16 11:36 44.10160 18.03146 35147 ft 448 kts 135°
2026-04-16 11:37 44.05720 18.09234 35140 ft 449 kts 135°
2026-04-16 11:37 44.01269 18.15339 35137 ft 450 kts 135°
2026-04-16 11:38 43.96799 18.21437 35136 ft 451 kts 136°
2026-04-16 11:38 43.92314 18.27538 35143 ft 451 kts 135°
2026-04-16 11:39 43.87833 18.33641 35127 ft 452 kts 137°
2026-04-16 11:39 43.83330 18.39749 35132 ft 453 kts 136°
2026-04-16 11:40 43.78854 18.45804 35139 ft 453 kts 137°
2026-04-16 11:40 43.74339 18.51896 35147 ft 453 kts 137°
2026-04-16 11:41 43.69819 18.57976 35138 ft 454 kts 137°
2026-04-16 11:41 43.65287 18.64063 35130 ft 455 kts 137°
2026-04-16 11:42 43.60754 18.70148 35143 ft 454 kts 137°
2026-04-16 11:42 43.56219 18.76226 35142 ft 454 kts 137°
2026-04-16 11:43 43.51684 18.82274 35148 ft 454 kts 137°
2026-04-16 11:43 43.47147 18.88314 35142 ft 453 kts 137°
2026-04-16 11:44 43.42643 18.94306 35143 ft 453 kts 137°
2026-04-16 11:44 43.38105 19.00318 35142 ft 452 kts 137°
2026-04-16 11:45 43.33573 19.06314 35144 ft 452 kts 137°
2026-04-16 11:45 43.29046 19.12293 35148 ft 451 kts 138°
2026-04-16 11:46 43.24528 19.18256 35153 ft 450 kts 137°
2026-04-16 11:46 43.20015 19.24201 35145 ft 449 kts 137°
2026-04-16 11:47 43.15508 19.30125 35149 ft 449 kts 138°
2026-04-16 11:47 43.10991 19.36026 35144 ft 449 kts 138°
2026-04-16 11:48 43.06477 19.41912 35133 ft 448 kts 137°
2026-04-16 11:48 43.01965 19.47801 35134 ft 448 kts 137°
2026-04-16 11:49 42.97449 19.53679 35123 ft 449 kts 138°
2026-04-16 11:49 42.93080 19.59683 35124 ft 449 kts 133°
2026-04-16 11:50 42.88965 19.66118 35117 ft 449 kts 133°
2026-04-16 11:50 42.84863 19.72534 35131 ft 449 kts 133°
2026-04-16 11:51 42.80755 19.78933 35130 ft 448 kts 133°
2026-04-16 11:51 42.76642 19.85307 35122 ft 448 kts 133°
2026-04-16 11:52 42.72529 19.91686 35119 ft 448 kts 133°
2026-04-16 11:52 42.68413 19.98057 35125 ft 449 kts 133°
2026-04-16 11:53 42.64286 20.04426 35128 ft 449 kts 133°
2026-04-16 11:53 42.60182 20.10737 35131 ft 449 kts 133°
2026-04-16 11:54 42.56040 20.17092 35120 ft 449 kts 133°
2026-04-16 11:54 42.51898 20.23435 35126 ft 449 kts 133°
2026-04-16 11:55 42.47754 20.29769 35130 ft 449 kts 133°
2026-04-16 11:55 42.43605 20.36107 35126 ft 449 kts 133°
2026-04-16 11:56 42.39449 20.42435 35126 ft 450 kts 133°
2026-04-16 11:56 42.35287 20.48748 35119 ft 450 kts 133°
2026-04-16 11:57 42.31822 20.53991 35115 ft 450 kts 133°
2026-04-16 11:57 42.27657 20.60300 35124 ft 450 kts 133°
2026-04-16 11:58 42.23486 20.66612 35122 ft 450 kts 133°
2026-04-16 11:58 42.19313 20.72911 35121 ft 450 kts 133°
2026-04-16 11:59 42.15129 20.79196 35125 ft 450 kts 133°
2026-04-16 11:59 42.10941 20.85476 35120 ft 450 kts 134°
2026-04-16 12:00 42.06757 20.91740 35129 ft 450 kts 134°
2026-04-16 12:00 42.02601 20.97945 35135 ft 449 kts 134°
2026-04-16 12:01 41.98424 21.04174 35139 ft 448 kts 134°
2026-04-16 12:01 41.94246 21.10386 35139 ft 448 kts 134°
2026-04-16 12:02 41.87978 21.19681 35128 ft 447 kts 135°
2026-04-16 12:02 41.83797 21.25863 35128 ft 447 kts 135°
2026-04-16 12:03 41.79623 21.32027 35130 ft 446 kts 135°
2026-04-16 12:03 41.75447 21.38178 35138 ft 445 kts 135°
2026-04-16 12:04 41.71286 21.44300 35140 ft 444 kts 135°
2026-04-16 12:04 41.67119 21.50416 35137 ft 444 kts 135°
2026-04-16 12:05 41.62979 21.56480 35143 ft 444 kts 135°
2026-04-16 12:05 41.58816 21.62566 35136 ft 443 kts 135°
2026-04-16 12:06 41.54649 21.68643 35136 ft 444 kts 135°
2026-04-16 12:06 41.50479 21.74699 35139 ft 443 kts 135°
2026-04-16 12:07 41.46307 21.80751 35130 ft 443 kts 135°
2026-04-16 12:07 41.42142 21.86795 35127 ft 442 kts 135°
2026-04-16 12:08 41.37980 21.92822 35135 ft 442 kts 135°
2026-04-16 12:08 41.33812 21.98840 35128 ft 441 kts 135°
2026-04-16 12:09 41.29649 22.04835 35125 ft 441 kts 135°
2026-04-16 12:09 41.25477 22.10821 35131 ft 441 kts 135°
2026-04-16 12:10 41.21314 22.16796 35131 ft 440 kts 135°
2026-04-16 12:10 41.17164 22.22750 35136 ft 438 kts 136°
2026-04-16 12:11 41.12580 22.28001 35140 ft 435 kts 143°
2026-04-16 12:11 41.07876 22.33055 35135 ft 435 kts 143°
2026-04-16 12:12 41.03209 22.38063 35129 ft 434 kts 143°
2026-04-16 12:12 40.98506 22.43089 35124 ft 434 kts 143°
2026-04-16 12:13 40.93812 22.48116 35119 ft 434 kts 143°
2026-04-16 12:13 40.89114 22.53138 35119 ft 434 kts 143°
2026-04-16 12:14 40.84414 22.58155 35126 ft 435 kts 143°
2026-04-16 12:14 40.79707 22.63166 35114 ft 435 kts 143°
2026-04-16 12:15 40.74992 22.68175 35121 ft 435 kts 143°
2026-04-16 12:15 40.70279 22.73165 35126 ft 435 kts 143°
2026-04-16 12:16 40.65596 22.78118 35128 ft 434 kts 143°
2026-04-16 12:16 40.60886 22.83098 35121 ft 435 kts 143°
2026-04-16 12:17 40.56157 22.88085 35124 ft 435 kts 143°
2026-04-16 12:17 40.51428 22.93060 35125 ft 436 kts 143°
2026-04-16 12:18 40.46646 22.97956 34994 ft 435 kts 149°
2026-04-16 12:18 40.44011 22.99884 34736 ft 432 kts 157°
2026-04-16 12:18 40.41221 23.01370 33930 ft 436 kts 161°
2026-04-16 12:19 40.38369 23.02783 33047 ft 439 kts 161°
2026-04-16 12:19 40.35503 23.04195 32174 ft 442 kts 160°
2026-04-16 12:19 40.32608 23.05618 31277 ft 446 kts 160°
2026-04-16 12:19 40.29696 23.07056 30420 ft 449 kts 160°
2026-04-16 12:20 40.26752 23.08519 29345 ft 455 kts 159°
2026-04-16 12:20 40.23785 23.09997 28321 ft 458 kts 159°
2026-04-16 12:20 40.20792 23.11483 27335 ft 460 kts 159°
2026-04-16 12:20 40.17785 23.12973 26240 ft 465 kts 159°
2026-04-16 12:21 40.14736 23.14480 25071 ft 471 kts 159°
2026-04-16 12:21 40.11666 23.15995 23995 ft 474 kts 159°
2026-04-16 12:21 40.08576 23.17519 23036 ft 473 kts 159°
2026-04-16 12:21 40.05525 23.19023 22260 ft 466 kts 159°
2026-04-16 12:22 40.02508 23.20511 21584 ft 459 kts 159°
2026-04-16 12:22 39.99566 23.21962 20757 ft 456 kts 160°
2026-04-16 12:22 39.96587 23.23431 19977 ft 451 kts 160°
2026-04-16 12:22 39.93677 23.24859 19301 ft 444 kts 160°
2026-04-16 12:23 39.90791 23.26272 18621 ft 439 kts 160°
2026-04-16 12:23 39.87975 23.27649 17826 ft 436 kts 160°
2026-04-16 12:23 39.85157 23.29029 17129 ft 430 kts 160°
2026-04-16 12:23 39.82383 23.30387 16489 ft 423 kts 160°
2026-04-16 12:24 39.79647 23.31730 15870 ft 417 kts 160°
2026-04-16 12:24 39.76953 23.33050 15276 ft 410 kts 160°
2026-04-16 12:24 39.74304 23.34343 14701 ft 404 kts 160°
2026-04-16 12:24 39.71692 23.35618 14140 ft 398 kts 160°
2026-04-16 12:25 39.69117 23.36871 13567 ft 392 kts 160°
2026-04-16 12:25 39.66588 23.38102 13034 ft 385 kts 160°
2026-04-16 12:25 39.64102 23.39313 12518 ft 378 kts 159°
2026-04-16 12:25 39.61661 23.40505 11988 ft 372 kts 159°
2026-04-16 12:26 39.59251 23.41682 11514 ft 367 kts 159°
2026-04-16 12:26 39.56912 23.42823 11374 ft 351 kts 159°
2026-04-16 12:26 39.54670 23.43911 11248 ft 337 kts 159°
2026-04-16 12:26 39.52517 23.44951 11130 ft 323 kts 159°
2026-04-16 12:27 39.50449 23.45950 10999 ft 311 kts 159°
2026-04-16 12:27 39.48460 23.46911 10877 ft 299 kts 159°
2026-04-16 12:27 39.46546 23.47832 10714 ft 289 kts 159°
2026-04-16 12:27 39.44679 23.48729 10559 ft 283 kts 158°
2026-04-16 12:28 39.42853 23.49610 10485 ft 284 kts 158°
2026-04-16 12:28 39.41004 23.50504 10368 ft 284 kts 158°
2026-04-16 12:28 39.39151 23.51398 10238 ft 284 kts 158°
2026-04-16 12:28 39.37304 23.52293 10118 ft 283 kts 158°
2026-04-16 12:29 39.35449 23.53192 9745 ft 286 kts 158°
2026-04-16 12:29 39.33592 23.54092 9347 ft 284 kts 157°
2026-04-16 12:29 39.31751 23.54983 8964 ft 281 kts 157°
2026-04-16 12:29 39.29926 23.55865 8589 ft 280 kts 157°
2026-04-16 12:30 39.28108 23.56744 8217 ft 278 kts 156°
2026-04-16 12:30 39.26299 23.57620 7846 ft 277 kts 156°
2026-04-16 12:30 39.24499 23.58487 7475 ft 276 kts 156°
2026-04-16 12:30 39.22707 23.59348 7114 ft 274 kts 156°
2026-04-16 12:31 39.20925 23.60206 6744 ft 272 kts 155°
2026-04-16 12:31 39.19099 23.60870 6382 ft 276 kts 169°
2026-04-16 12:31 39.17183 23.60750 5988 ft 275 kts 189°
2026-04-16 12:31 39.15398 23.59848 5623 ft 277 kts 204°
2026-04-16 12:32 39.13679 23.58717 5245 ft 277 kts 204°
2026-04-16 12:32 39.11957 23.57588 4777 ft 280 kts 204°
2026-04-16 12:32 39.10240 23.56465 4368 ft 280 kts 204°
2026-04-16 12:32 39.08493 23.55325 4106 ft 272 kts 205°
2026-04-16 12:33 39.06836 23.54244 3753 ft 265 kts 205°
2026-04-16 12:33 39.05243 23.53206 3302 ft 253 kts 205°
2026-04-16 12:33 39.03714 23.52209 2948 ft 238 kts 206°
2026-04-16 12:33 39.02457 23.51024 2736 ft 211 kts 236°
2026-04-16 12:34 39.01996 23.49423 2603 ft 179 kts 272°
2026-04-16 12:34 39.02251 23.47970 2526 ft 160 kts 304°
2026-04-16 12:34 39.02965 23.46960 2460 ft 149 kts 332°
2026-04-16 12:34 39.03902 23.46505 2460 ft 143 kts 356°
2026-04-16 12:35 39.04895 23.46574 2309 ft 144 kts 10°
2026-04-16 12:35 39.05891 23.46749 2145 ft 145 kts 11°
2026-04-16 12:35 39.06881 23.47001 1934 ft 145 kts 12°
2026-04-16 12:35 39.07859 23.47290 1787 ft 144 kts 14°
2026-04-16 12:36 39.08839 23.47571 1672 ft 144 kts 12°
2026-04-16 12:36 39.09828 23.47776 1540 ft 144 kts
2026-04-16 12:36 39.10827 23.47832 1357 ft 144 kts
2026-04-16 12:36 39.11826 23.47866 999 ft 143 kts
2026-04-16 12:37 39.12772 23.48231 882 ft 143 kts 19°
2026-04-16 12:37 39.13730 23.48641 748 ft 145 kts 17°
2026-04-16 12:37 39.14703 23.49025 524 ft 147 kts 17°
2026-04-16 12:37 39.15660 23.49455 351 ft 149 kts 19°
2026-04-16 12:38 39.16636 23.49883 132 ft 148 kts 17°
2026-04-16 12:38 39.17576 23.50294 37 ft 120 kts 20°
2026-04-16 12:38 39.18081 23.50521 47 ft 39 kts 19°
2026-04-16 12:38 39.18305 23.50622 58 ft 31 kts 19°
2026-04-16 12:39 39.18414 23.50647 58 ft 7 kts 38°
2026-04-16 12:39 39.18401 23.50656 58 ft 7 kts 195°
2026-04-16 12:39 39.18338 23.50631 59 ft 10 kts 198°
2026-04-16 12:39 39.18265 23.50600 51 ft 12 kts 198°
2026-04-16 12:40 39.18175 23.50561 51 ft 15 kts 199°
2026-04-16 12:40 39.18062 23.50512 46 ft 18 kts 199°
2026-04-16 12:40 39.17988 23.50479 45 ft 10 kts 199°
2026-04-16 12:40 39.17942 23.50424 43 ft 7 kts 250°
2026-04-16 12:41 39.17941 23.50419 43 ft 1 kts 249°
2026-04-16 12:41 39.17940 23.50416 43 ft 0 kts 249°
2026-04-16 12:41 39.17938 23.50409 43 ft 1 kts 249°
2026-04-16 12:41 39.17934 23.50399 42 ft 1 kts 248°
2026-04-16 12:42 39.17931 23.50388 41 ft 1 kts 248°
2026-04-16 12:42 39.17929 23.50380 41 ft 1 kts 248°
2026-04-16 12:42 39.17928 23.50379 42 ft 0 kts 248°
2026-04-16 12:44 39.17927 23.50373 42 ft 3 kts 257°
2026-04-16 12:44 39.17942 23.50364 41 ft 3 kts 340°
2026-04-16 12:44 39.17950 23.50360 43 ft 1 kts 340°
2026-04-16 12:45 39.17962 23.50354 45 ft 2 kts 335°
2026-04-16 12:45 39.17972 23.50330 48 ft 2 kts 296°
2026-04-16 12:45 39.17976 23.50319 48 ft 2 kts 292°
2026-04-16 12:45 39.17983 23.50297 50 ft 4 kts 292°
2026-04-16 12:46 39.17985 23.50289 52 ft 1 kts 290°
2026-04-16 12:46 39.17989 23.50272 56 ft 0 kts 288°
2026-04-16 12:46 39.17991 23.50265 57 ft 0 kts 287°
2026-04-16 12:46 39.17991 23.50263 58 ft 0 kts 287°